EncompDEV
CodeWizard

Download Field Explorer Pro and search all Standard, Virtual, Custom and RDB Fields in your Encompass

Search Fields in containing Field Changes
Your Field Search History
Time Search Version Fields
11/14/2018 05:25 organiz 18.4 49
Global Field Search History
Time Search Version Fields
11/14/2018 05:25 organiz 18.4 49
11/14/2018 05:24 3658 18.4 2
11/14/2018 05:24 latefee 18.4 20
11/14/2018 05:24 denial.x62 18.4 1
11/14/2018 05:24 date r 18.4 1,315
11/14/2018 05:24 assign 18.4 93
11/14/2018 05:24 3657 18.4 2
11/14/2018 05:24 360 18.4 43
11/14/2018 05:24 amo 18.4 4,290
11/14/2018 05:24 342 18.4 47
11/14/2018 05:24 Borrower N 18.4 1,826
11/14/2018 05:24 HUD1 Borr 18.4 65
11/14/2018 05:24 3331 18.4 2
11/14/2018 05:24 3265 18.4 2
11/14/2018 05:24 es 18.4 14,856
11/14/2018 05:24 326 18.4 50
11/14/2018 05:24 itemization 18.4 108
11/14/2018 05:24 324 18.4 62
11/14/2018 05:24 servici 18.4 350
11/14/2018 05:24 737 18.4 32
11/14/2018 05:24 323 18.4 30
11/14/2018 05:24 GSEVENDOR.X24 18.4 1
11/14/2018 05:23 income verification 18.4 5
11/14/2018 05:23 3197 18.4 2
11/14/2018 05:23 907 18.4 77
11/14/2018 05:23 concession 18.4 113
11/14/2018 05:23 1205 18.4 47
11/14/2018 05:23 3192 18.4 2
11/14/2018 05:23 3170 18.4 2
11/14/2018 05:23 3166 18.4 3
11/14/2018 05:23 3164 18.4 3
11/14/2018 05:23 3152 18.4 2
11/14/2018 05:23 689 18.4 35
11/14/2018 05:23 3086 18.4 2
11/14/2018 05:23 300 18.4 130
11/14/2018 05:22 2998 18.4 2
11/14/2018 05:22 2997 18.4 2
11/14/2018 05:22 299 18.4 42
11/14/2018 05:22 2978 18.4 1
11/14/2018 05:22 HMDA.X11 18.4 4
11/14/2018 05:22 296 18.4 139
11/14/2018 05:22 981 18.4 11
11/14/2018 05:22 290 18.4 208
11/14/2018 05:22 2860 18.4 2
11/14/2018 05:22 2288 18.4 13
11/14/2018 05:22 indicator 18.4 681
11/14/2018 05:21 2827 18.4 2
11/14/2018 05:21 396 18.4 62
11/14/2018 05:21 2824 18.4 2
11/14/2018 05:21 Inte 18.4 588
11/14/2018 05:21 date of birth 18.4 2
11/14/2018 05:21 2553 18.4 1
11/14/2018 05:21 data template 18.4 1
11/14/2018 05:21 buyer's 18.4 23
11/14/2018 05:21 2400 18.4 2
11/14/2018 05:21 pu 18.4 315
11/14/2018 05:20 24 18.4 1,830
11/14/2018 05:20 AUS 18.4 513
11/14/2018 05:20 228 18.4 160
11/14/2018 05:20 22 18.4 1,684
11/14/2018 05:20 Hispanic or Latino 18.4 8
11/14/2018 05:20 204 18.4 95
11/14/2018 05:20 SYS. 18.4 550
11/14/2018 05:20 Q 18.4 8,139
11/14/2018 05:20 203K ltv 18.4 3
11/14/2018 05:20 HMDA.X7 18.4 10
11/14/2018 05:20 Price Lock 18.4 5,213
11/14/2018 05:20 Fin 18.4 797
11/14/2018 05:20 1880 18.4 2
11/14/2018 05:20 4075 18.4 2
11/14/2018 05:20 funding fee 18.4 145
11/14/2018 05:19 188 18.4 48
11/14/2018 05:19 FL0011 18.4 1
11/14/2018 05:19 1855 18.4 1
11/14/2018 05:19 employee state 18.4 6
11/14/2018 05:19 1766 18.4 2
11/14/2018 05:19 172 18.4 74
11/14/2018 05:19 1707 18.4 3
11/14/2018 05:19 qualified 18.4 81
11/14/2018 05:19 1677 18.4 3
11/14/2018 05:19 166 18.4 64
11/14/2018 05:19 1620 18.4 3
11/14/2018 05:19 3297 18.4 2
11/14/2018 05:18 162 18.4 63
11/14/2018 05:18 1619 18.4 2
11/14/2018 05:18 16 18.4 1,584
11/14/2018 05:18 third 18.4 47
11/14/2018 05:18 Arm type 18.4 21
11/14/2018 05:18 155 18.4 59
11/14/2018 05:18 cas 18.4 227
11/14/2018 05:18 1533 18.4 3
11/14/2018 05:18 1523 18.4 3
11/14/2018 05:18 150 18.4 90
11/14/2018 05:18 18 18.4 1,362
11/14/2018 05:18 HMDA.X28 18.4 1
11/14/2018 05:18 1490 18.4 4
11/14/2018 05:17 1415 18.4 15
11/14/2018 05:17 Credit Report 18.4 55
11/14/2018 05:17 1414 18.4 15
11/14/2018 05:17 85 18.4 381
11/14/2018 05:17 1412 18.4 3
11/14/2018 05:17 1240 18.4 3
11/14/2018 05:17 inc 18.4 970
11/14/2018 05:17 141 18.4 100
11/14/2018 05:17 1407 18.4 3
11/14/2018 05:17 1389 18.4 3
11/14/2018 05:17 Reserves 18.4 26
11/14/2018 05:17 1245 18.4 3
11/14/2018 05:17 AUS.X2 18.4 22
11/14/2018 05:17 1199 18.4 4
11/14/2018 05:17 1176 18.4 3
11/14/2018 05:16 1172 18.4 18
11/14/2018 05:16 recommen 18.4 9
11/14/2018 05:16 1102 18.4 316
11/14/2018 05:16 1101b 18.4 42
11/14/2018 05:16 110 18.4 973
11/14/2018 05:16 evalua 18.4 28
11/14/2018 05:16 1069 18.4 4
11/14/2018 05:16 confi 18.4 977
11/14/2018 05:16 1066 18.4 5
11/14/2018 05:16 4091 18.4 2
11/14/2018 05:16 1059 18.4 5
11/14/2018 05:16 1041 18.4 16
11/14/2018 05:15 1039 18.4 5
11/14/2018 05:15 1003 18.4 74
11/14/2018 05:15 100 18.4 604
11/14/2018 05:15 10 18.4 3,823
11/14/2018 05:15 newhud.x217 18.4 2
11/14/2018 05:15 per 18.4 1,247
11/14/2018 05:15 1 18.4 19,692
11/14/2018 05:15 07 18.4 671
11/14/2018 05:15 051 18.4 17
11/14/2018 05:15 investor delivery dat 18.4 13
11/14/2018 05:15 0212 18.4 1
11/14/2018 05:15 0204 18.4 2
11/14/2018 05:14 0116 18.4 2
11/14/2018 05:14 loan t 18.4 1,769
11/14/2018 05:14 (Previous 4) 18.4 6
11/14/2018 05:14 (Previou 18.4 5,954
11/14/2018 05:14 (Previo 18.4 5,954
11/14/2018 05:14 (Prev 18.4 5,954
11/14/2018 05:14 NMLS.x11 18.4 1
11/14/2018 05:14 unit number 18.4 2
11/14/2018 05:14 Trans 18.4 724
11/14/2018 05:14 origination poi 18.4 25
11/14/2018 05:14 1960 18.4 2
11/14/2018 05:14 615 18.4 12
11/14/2018 05:13 sys 18.4 556
11/14/2018 05:13 HMDA Loan Purpose 18.4 1
11/14/2018 05:13 lende 18.4 985
11/14/2018 05:13 AUSf.x1 18.4 11
11/14/2018 05:12 1206 18.4 51
11/14/2018 05:12 841 18.4 32
11/14/2018 05:12 ext 18.4 1,328
11/14/2018 05:12 601 18.4 13
11/14/2018 05:12 2626 18.4 2
11/14/2018 05:12 317 18.4 77
11/14/2018 05:12 preliminary 18.4 48
11/14/2018 05:11 mornet.x40 18.4 1
11/14/2018 05:11 Vietnamese 18.4 2
11/14/2018 05:11 Borrower Can Demonstrate 18.4 24
11/14/2018 05:11 ext 18.4 1,325
11/14/2018 05:10 Mavent Compliance 18.4 18
11/14/2018 05:10 du refi 18.4 3
11/14/2018 05:10 Fee Details - Line 801g 18.4 28
11/14/2018 05:10 Correspondent Loan 18.4 52
11/14/2018 05:09 expla 18.4 24
11/14/2018 05:09 LE1.X24 18.4 1
11/14/2018 05:09 borr name 18.4 121
11/14/2018 05:09 323 18.4 30
11/14/2018 05:09 cap 18.4 102
11/14/2018 05:09 de 18.4 17,909
11/14/2018 05:09 existing 18.4 92
11/14/2018 05:08 military 18.4 78
11/14/2018 05:08 fe0115 18.4 12
11/14/2018 05:08 Sales rep 18.4 4
11/14/2018 05:08 flood 18.4 109
11/14/2018 05:07 fee 18.4 7,001
11/14/2018 05:07 closing.ntendrs 18.4 28
11/14/2018 05:07 cd1.x18 18.4 1
11/14/2018 05:07 native ha 18.4 4
11/14/2018 05:06 L 18.4 31,538
11/14/2018 05:06 File contact Underwriter cont 18.4 30
11/14/2018 05:06 Ne 18.4 9,569
11/14/2018 05:06 builder 18.4 29
11/14/2018 05:05 final cd 18.4 26
11/14/2018 05:05 team phone 18.4 2
11/14/2018 05:05 services 18.4 32
11/14/2018 05:05 hmda.x26 18.4 1
11/14/2018 05:05 ULDD.X142 18.4 1
11/14/2018 05:05 newhud2.x3335 18.4 1
11/14/2018 05:05 Borr resid 18.4 69
11/14/2018 05:04 1114 18.4 57
11/14/2018 05:04 NEWHUD.X128 18.4 11
11/14/2018 05:04 fees 18.4 1,840
11/14/2018 05:04 primary 18.4 8
11/14/2018 05:03 milestone 18.4 34
11/14/2018 05:03 2400 18.4 2
11/14/2018 05:03 2000 18.4 3
11/14/2018 05:03 Lender Nam 18.4 37
11/14/2018 05:03 proposed maturity 18.4 2
11/14/2018 05:03 763 18.4 44
11/14/2018 05:03 proposed maturity 18.4 2
11/14/2018 05:03 contract 18.4 70
11/14/2018 05:03 reason 18.4 74
11/14/2018 05:03 present housing 18.4 11
11/14/2018 05:02 Survey 18.4 45
11/14/2018 05:02 hire date 18.4 2
11/14/2018 05:02 Refinance 18.4 71
11/14/2018 05:02 source 18.4 40
11/14/2018 05:02 closing disclosure date 18.4 157
11/14/2018 05:02 4179 18.4 2
11/14/2018 05:01 Trans Details Down 18.4 2
11/14/2018 05:01 143 18.4 71
11/14/2018 05:01 empir 18.4 172
11/14/2018 05:01 lender name 18.4 37
11/14/2018 05:00 Construction loa 18.4 12
11/14/2018 05:00 3985 18.4 2
11/14/2018 05:00 borrower pair 18.4 37
11/14/2018 05:00 eXPLAIN 18.4 5
11/14/2018 04:59 804 18.4 69
11/14/2018 04:59 4 18.4 12,928
11/14/2018 04:59 MI 18.4 1,158
11/14/2018 04:59 hmda.x52 18.4 1
11/14/2018 04:59 lender identifier 18.4 4
11/14/2018 04:59 Vend 18.4 1,015
11/14/2018 04:59 Commitment 18.4 151
11/14/2018 04:58 LE2.XSTD 18.4 2
11/14/2018 04:58 regz 18.4 275
11/14/2018 04:58 HMDA.x14 18.4 1
11/14/2018 04:58 aus du 18.4 6
11/14/2018 04:58 EDISCLOSED2015TRK.EDISCLOSUREB 18.4 1
11/14/2018 04:57 VASUMM.X2 18.4 22
11/14/2018 04:57 972 18.4 11
11/14/2018 04:57 course 18.4 4
11/14/2018 04:57 loan tea 18.4 14
11/14/2018 04:57 Te 18.4 16,598
11/14/2018 04:57 FE0115 18.4 12
11/14/2018 04:56 up 18.4 249
11/14/2018 04:56 fl 18.4 281
11/14/2018 04:56 desc 18.4 4,615
11/14/2018 04:56 L 18.4 28,711
11/14/2018 04:56 lock rate 18.4 13,604
11/14/2018 04:56 purpose 18.4 52
11/14/2018 04:56 Qualified mortgage loan type 18.4 1
11/14/2018 04:56 HMDA.X34 18.4 1
11/14/2018 04:56 1204 18.4 47
11/14/2018 04:55 hom 18.4 206
11/14/2018 04:55 sponsor id 18.4 7
11/14/2018 04:55 203k 18.4 121
11/14/2018 04:55 OR 18.4 8,735
11/14/2018 04:55 see 18.4 20
11/14/2018 04:55 4198 18.4 1
11/14/2018 04:55 l182 18.4 1
11/14/2018 04:55 closing.nt 18.4 66
11/14/2018 04:55 current 18.4 228
11/14/2018 04:55 fees interest fro 18.4 2
11/14/2018 04:55 Withdrawal Request 18.4 1
11/14/2018 04:55 Note Da 18.4 16
11/14/2018 04:55 936 18.4 22
11/14/2018 04:55 construction 18.4 88
11/14/2018 04:55 Recording 18.4 31
11/14/2018 04:55 3540 18.4 2
11/14/2018 04:55 ST License ID 18.4 18
11/14/2018 04:54 confirmed 18.4 976
11/14/2018 04:54 fully amortize 18.4 2
11/14/2018 04:54 execut 18.4 34
11/14/2018 04:54 disclosure.x95 18.4 11
11/14/2018 04:54 conversion 18.4 7
11/14/2018 04:54 Automated 18.4 4
11/14/2018 04:54 Holdba 18.4 2
11/14/2018 04:54 3039 18.4 2
11/14/2018 04:54 1524 18.4 4
11/14/2018 04:54 qm.x2 18.4 111
11/14/2018 04:54 interview date 18.4 1
11/14/2018 04:54 appraisal revie 18.4 5
11/14/2018 04:54 qm.x2 18.4 111
11/14/2018 04:54 period 18.4 92
11/14/2018 04:54 ae 18.4 734
11/14/2018 04:54 period 18.4 92
11/14/2018 04:53 MIP REFUND 18.4 1
11/14/2018 04:53 page 4 18.4 181
11/14/2018 04:53 orgID 18.4 1
11/14/2018 04:53 of 18.4 1,497
11/14/2018 04:53 license review 18.4 1
11/14/2018 04:53 l245 18.4 2
11/14/2018 04:53 transaction fees 18.4 2
11/14/2018 04:53 interest 18.4 292
11/14/2018 04:53 payment coupon 18.4 98
11/14/2018 04:53 interest 18.4 292
11/14/2018 04:53 pay date 18.4 130
11/14/2018 04:53 has 18.4 300
11/14/2018 04:53 Borrower id 18.4 467
11/14/2018 04:53 has 18.4 300
11/14/2018 04:53 4151 18.4 2
11/14/2018 04:53 fm 18.4 216
11/14/2018 04:53 est c 18.4 8,171
11/14/2018 04:53 ms.status 18.4 3
11/14/2018 04:53 lock (pre 18.4 6,770
11/14/2018 04:53 est c 18.4 8,171
11/14/2018 04:53 discount points 18.4 15
11/14/2018 04:53 cb 18.4 84
11/14/2018 04:53 act 18.4 1,396
11/14/2018 04:53 discount points 18.4 15
11/14/2018 04:53 nmls.x3 18.4 1
11/14/2018 04:53 bank 18.4 61
11/14/2018 04:53 automob 18.4 7
11/14/2018 04:53 Inte 18.4 574
11/14/2018 04:53 OR ID 18.4 1,887
11/14/2018 04:53 book 18.4 10
11/14/2018 04:53 OR ID 18.4 1,887
11/14/2018 04:53 Negative Amortization 18.4 15
11/14/2018 04:53 applicatio date 18.4 12
11/14/2018 04:53 Negative Amortization 18.4 15
11/14/2018 04:53 NE 18.4 9,425
11/14/2018 04:53 Loan Amo 18.4 357
11/14/2018 04:53 NE 18.4 9,425
11/14/2018 04:53 IR0005 18.4 1
11/14/2018 04:53 HPML 18.4 7
11/14/2018 04:53 FR0108 18.4 1
11/14/2018 04:53 AUSTRACKING 18.4 192
11/14/2018 04:53 370 18.4 142
11/14/2018 04:52 337 18.4 134
11/14/2018 04:52 3246 18.4 2
11/14/2018 04:52 1530 18.4 4
11/14/2018 04:52 0102 18.4 2
11/14/2018 04:52 servicing 18.4 350
11/14/2018 04:52 serv 18.4 950
11/14/2018 04:52 referral 18.4 6
11/14/2018 04:52 purchase advice 18.4 187
11/14/2018 04:52 pro 18.4 1,988
11/14/2018 04:52 other borrower 18.4 13
11/14/2018 04:52 org 18.4 82
11/14/2018 04:52 880 18.4 21
11/14/2018 04:52 org 18.4 82
11/14/2018 04:52 new loan 18.4 26
11/14/2018 04:52 lockrate.2287 18.4 1
11/14/2018 04:52 new 18.4 5,805
11/14/2018 04:52 DI 18.4 5,721
11/14/2018 04:52 loan nu 18.4 32
11/14/2018 04:52 condo 18.4 18
11/14/2018 04:52 COREMILESTONE 18.4 1
11/14/2018 04:52 borr 18.4 3,376
11/14/2018 04:52 arm type 18.4 21
11/14/2018 04:52 country 18.4 3
11/14/2018 04:52 ULDD.GNM.MrtggPrgrmType 18.4 1
11/14/2018 04:52 Subject indicator 18.4 6
11/14/2018 04:52 history 18.4 70
11/14/2018 04:52 Service F 18.4 180
11/14/2018 04:52 Security Inst 18.4 24
11/14/2018 04:52 Secti 18.4 819
11/14/2018 04:52 QM.x 18.4 372
11/14/2018 04:51 last cd 18.4 6
11/14/2018 04:51 zip 18.4 270
11/14/2018 04:51 Purchase A 18.4 257
11/14/2018 04:51 Previous 18.4 6,059
11/14/2018 04:51 ULDD.X188 18.4 1
11/14/2018 04:51 Organization 18.4 42
11/14/2018 04:51 years 18.4 56
11/14/2018 04:51 No 18.4 1,013
11/14/2018 04:51 Middle 18.4 4
11/14/2018 04:51 MORNET.X71 18.4 1
11/14/2018 04:51 MIP fund 18.4 2
11/14/2018 04:51 LE2. 18.4 53
11/14/2018 04:51 L358 18.4 1
11/14/2018 04:51 x133 18.4 38
11/14/2018 04:51 HMDA ex 18.4 1
11/14/2018 04:51 DISCLOSURE.X459 18.4 1
11/14/2018 04:51 DENIAL.X6 18.4 10
11/14/2018 04:51 DENIAL.X3 18.4 10
11/14/2018 04:51 x13 18.4 423
11/14/2018 04:51 DENIAL.X3 18.4 10
11/14/2018 04:51 DENIAL. 18.4 72
11/14/2018 04:51 reference 18.4 18
11/14/2018 04:51 DENIAL. 18.4 72
11/14/2018 04:51 Assum 18.4 33
11/14/2018 04:51 waiver 18.4 2
11/14/2018 04:51 369 18.4 153
11/14/2018 04:51 357 18.4 32
11/14/2018 04:51 2984 18.4 2
11/14/2018 04:51 2568 18.4 2
11/14/2018 04:51 S 18.4 29,651
11/14/2018 04:51 trustee 18.4 81
11/14/2018 04:51 represen 18.4 13
11/14/2018 04:51 party type 18.4 7
11/14/2018 04:51 negati 18.4 22
11/14/2018 04:51 mor 18.4 1,588
11/14/2018 04:51 waived 18.4 29
11/14/2018 04:51 mc 18.4 65
11/14/2018 04:50 manageme 18.4 362
11/14/2018 04:50 gro 18.4 39
11/14/2018 04:50 closing cost 18.4 122
11/14/2018 04:50 funding d 18.4 345
11/14/2018 04:50 verbal 18.4 1
11/14/2018 04:50 flood cert 18.4 12
11/14/2018 04:50 bor 18.4 3,522
11/14/2018 04:50 vend.x677 18.4 1
11/14/2018 04:50 bor 18.4 3,522
11/14/2018 04:50 loan officer 18.4 159
11/14/2018 04:50 bond program 18.4 2
11/14/2018 04:50 vend.x500 18.4 1
11/14/2018 04:50 1767 18.4 2
11/14/2018 04:50 acre 18.4 2
11/14/2018 04:50 constru 18.4 111
11/14/2018 04:50 acre 18.4 2
11/14/2018 04:50 Trans Details Est Closing 18.4 14
11/14/2018 04:50 SUBJECT PROPERTY TITLE NAME 18.4 2
11/14/2018 04:50 annual mi 18.4 9
11/14/2018 04:50 X 18.4 16,795
11/14/2018 04:50 SUBJECT PROPERTY TITLE NAME 18.4 2
11/14/2018 04:50 S 18.4 29,651
11/14/2018 04:50 ein 18.4 27
11/14/2018 04:50 vend.x140 18.4 1
11/14/2018 04:50 months ON JOB 18.4 2
11/14/2018 04:50 File conta 18.4 978
11/14/2018 04:50 File cont 18.4 978
11/14/2018 04:50 3453 18.4 2
11/14/2018 04:50 mca 18.4 63
11/14/2018 04:50 280 18.4 157
11/14/2018 04:50 va funding fee 18.4 6
11/14/2018 04:50 280 18.4 157
11/14/2018 04:50 (Previo 18.4 5,954
11/14/2018 04:50 vetera 18.4 51
11/14/2018 04:50 sur 18.4 2,639
11/14/2018 04:50 va f 18.4 412
11/14/2018 04:50 sur 18.4 2,639
11/14/2018 04:50 si 18.4 8,575
11/14/2018 04:50 ne 18.4 9,279
11/14/2018 04:50 CUST 18.4 200
11/14/2018 04:50 ne 18.4 9,279
11/14/2018 04:50 va case 18.4 1
11/14/2018 04:50 ms.st 18.4 5
11/14/2018 04:50 party 18.4 91
11/14/2018 04:50 cd req 18.4 1
11/14/2018 04:50 seco 18.4 38
11/14/2018 04:50 cd 18.4 1,234
11/14/2018 04:50 case 18.4 21
11/14/2018 04:50 v 18.4 10,722
11/14/2018 04:49 cd 18.4 1,234
11/14/2018 04:49 bir 18.4 1
11/14/2018 04:49 MI 18.4 1,160
11/14/2018 04:49 service. 18.4 148
11/14/2018 04:49 NEWH 18.4 5,705
11/14/2018 04:49 Monthly 18.4 188
11/14/2018 04:49 FM0020 18.4 1
11/14/2018 04:49 rental income 18.4 7
11/14/2018 04:49 FHA case 18.4 4
11/14/2018 04:49 govt 18.4 22
11/14/2018 04:49 DEED 18.4 12
11/14/2018 04:49 Casasrn.x107 18.4 1
11/14/2018 04:49 uw 18.4 22
11/14/2018 04:49 3000 18.4 2
11/14/2018 04:49 special f 18.4 11
11/14/2018 04:49 edisclos 18.4 47
11/14/2018 04:49 Warranty 18.4 6
11/14/2018 04:49 Subordinat 18.4 58
11/14/2018 04:49 userid 18.4 4
11/14/2018 04:49 first pay dat 18.4 6
11/14/2018 04:49 declaration l 18.4 32
11/14/2018 04:49 40 18.4 886
11/14/2018 04:49 use 18.4 516
11/14/2018 04:49 last 18.4 496
11/14/2018 04:49 1883 18.4 1
11/14/2018 04:49 descript 18.4 383
11/14/2018 04:49 last 18.4 496
11/14/2018 04:49 AUStracking 18.4 192
11/14/2018 04:49 UWC. 18.4 29
11/14/2018 04:49 MORTGAGE PR 18.4 189
11/14/2018 04:49 Post closing 18.4 57
11/14/2018 04:49 usda 18.4 224
11/14/2018 04:49 Post closing 18.4 57
11/14/2018 04:49 FULFille 18.4 39
11/14/2018 04:49 file ID 18.4 16
11/14/2018 04:49 2592 18.4 12
11/14/2018 04:49 upfont 18.4 12
11/14/2018 04:49 2592 18.4 12
11/14/2018 04:49 disclosure. 18.4 1,186
11/14/2018 04:49 units 18.4 30
11/14/2018 04:48 4197 18.4 2
11/14/2018 04:48 unit 18.4 52
11/14/2018 04:48 underwriting 18.4 193
11/14/2018 04:48 FV.X347 18.4 1
11/14/2018 04:48 underwriter email 18.4 2
11/14/2018 04:48 under 18.4 278
11/14/2018 04:48 uldd.x28 18.4 1
11/14/2018 04:48 payment date 18.4 100
11/14/2018 04:48 uldd.x187 18.4 1
11/14/2018 04:48 uldd.x171 18.4 1
11/14/2018 04:48 loan originator ID 18.4 3
11/14/2018 04:47 uldd - Investor feature id 18.4 3
11/14/2018 04:47 disclosure.x104 18.4 11
11/14/2018 04:47 2626 18.4 2
11/14/2018 04:47 uldd - Investor 18.4 14
11/14/2018 04:47 1399 18.4 3
11/14/2018 04:47 uldd - I 18.4 137
11/14/2018 04:47 coverage 18.4 12
11/14/2018 04:47 uldd 18.4 298
11/14/2018 04:47 FHA 203k B11 18.4 1
11/14/2018 04:47 ufmip 18.4 8
11/14/2018 04:47 u 18.4 25,683
11/14/2018 04:47 type 18.4 911
11/14/2018 04:46 ty 18.4 2,384
11/14/2018 04:46 verification 18.4 16
11/14/2018 04:46 included 18.4 17
11/14/2018 04:46 trans details 18.4 421
11/14/2018 04:46 Unpaid Principal Bal 18.4 8
11/14/2018 04:46 trade 18.4 19
11/14/2018 04:46 tim 18.4 536
11/14/2018 04:46 tr 18.4 2,453
11/14/2018 04:46 tql 18.4 125
11/14/2018 04:46 title 18.4 333
11/14/2018 04:46 til initial 18.4 3
11/14/2018 04:46 loan originato 18.4 10
11/14/2018 04:46 Loa 18.4 1,901
11/14/2018 04:46 til init 18.4 3
11/14/2018 04:45 test 18.4 55
11/14/2018 04:45 REQUEST.X10 18.4 1
11/14/2018 04:45 wh 18.4 5,854
11/14/2018 04:45 termination 18.4 12
11/14/2018 04:45 rec 18.4 6,295
11/14/2018 04:45 temporary buydown 18.4 3
11/14/2018 04:45 3032 18.4 2
11/14/2018 04:45 ssa 18.4 98
11/14/2018 04:45 re 18.4 20,414
11/14/2018 04:45 temporary b 18.4 3
11/14/2018 04:45 rate s 18.4 13,918
11/14/2018 04:45 Use Actual Down Payment & Closing Costs Financed 18.4 1
11/14/2018 04:45 team 18.4 12
11/14/2018 04:45 price 18.4 5,250
11/14/2018 04:45 mic 18.4 3
11/14/2018 04:45 taxes 18.4 59
11/14/2018 04:45 personal 18.4 23
11/14/2018 04:45 pri 18.4 5,555
11/14/2018 04:45 tax 18.4 299
11/14/2018 04:45 previous 18.4 7,061
11/14/2018 04:45 newh 18.4 5,803
11/14/2018 04:45 18 18.4 1,350
11/14/2018 04:45 fullfi 18.4 2
11/14/2018 04:45 new h 18.4 5,845
11/14/2018 04:44 mo 18.4 11,444
11/14/2018 04:44 m 18.4 24,251
11/14/2018 04:44 target 18.4 13
11/14/2018 04:44 reference 18.4 18
11/14/2018 04:44 lockrate. 18.4 4,531
11/14/2018 04:44 NEWHUD2. 18.4 3,978
11/14/2018 04:44 table 18.4 63
11/14/2018 04:44 lockrate 18.4 12,421
11/14/2018 04:44 Lock St 18.4 13,013
11/14/2018 04:44 borr name 18.4 125
11/14/2018 04:44 lock rate 18.4 13,604
11/14/2018 04:44 LOCKRAT 18.4 12,421
11/14/2018 04:44 lock price 18.4 5,213
11/14/2018 04:44 Fee Li 18.4 6,022
11/14/2018 04:44 it 18.4 4,463
11/14/2018 04:44 Fee 18.4 8,153
11/14/2018 04:44 f 18.4 17,026
11/14/2018 04:44 vi 18.4 8,253
11/14/2018 04:44 did 18.4 147
11/14/2018 04:44 VASUMM.X22 18.4 1
11/14/2018 04:44 es 18.4 16,824
11/14/2018 04:44 su 18.4 3,914
11/14/2018 04:44 res 18.4 1,274
11/14/2018 04:44 en 18.4 16,787
11/14/2018 04:44 poc 18.4 1,381
11/14/2018 04:44 book 18.4 10
11/14/2018 04:44 modifi 18.4 20
11/14/2018 04:44 Base Loan Amount 18.4 11
11/14/2018 04:44 disc 18.4 2,948
11/14/2018 04:44 di 18.4 6,011
11/14/2018 04:44 newhud2.x 18.4 3,978
11/14/2018 04:44 d 18.4 30,763
11/14/2018 04:44 newhu 18.4 5,803
11/14/2018 04:44 1848 18.4 1
11/14/2018 04:43 lock request 18.4 8,041
11/14/2018 04:43 nam 18.4 1,080
11/14/2018 04:43 amount 18.4 4,153
11/14/2018 04:43 refinance type 18.4 6
11/14/2018 04:43 lock ex 18.4 1,410
11/14/2018 04:43 adjustment 18.4 5,419
11/14/2018 04:43 t 18.4 29,417
11/14/2018 04:43 line 18.4 7,407
11/14/2018 04:43 HMDA.X11 18.4 1
11/14/2018 04:43 Amount 18.4 4,036
11/14/2018 04:43 em 18.4 2,191
11/14/2018 04:43 survey 18.4 45
11/14/2018 04:43 adjustme 18.4 5,420
11/14/2018 04:43 j 18.4 10,866
11/14/2018 04:43 V 18.4 12,028
11/14/2018 04:43 ULD 18.4 304
11/14/2018 04:43 for 18.4 1,146
11/14/2018 04:43 Sales Rep 18.4 4
11/14/2018 04:43 fee borr 18.4 1,462
11/14/2018 04:43 extensio 18.4 1,035
11/14/2018 04:43 SE 18.4 16,969
11/14/2018 04:43 summary 18.4 80
11/14/2018 04:43 exten 18.4 1,124
11/14/2018 04:43 el 18.4 7,577
11/14/2018 04:43 summ 18.4 197
11/14/2018 04:43 custom 18.4 1,178
11/14/2018 04:43 Pri 18.4 5,555
11/14/2018 04:43 cl 18.4 4,160
11/14/2018 04:43 sum 18.4 327
11/14/2018 04:43 334 18.4 36
11/14/2018 04:43 P 18.4 25,017
11/14/2018 04:43 by o 18.4 1,240
11/14/2018 04:43 credit 18.4 482
11/14/2018 04:43 bu 18.4 3,739
11/14/2018 04:43 subordinate 18.4 54
11/14/2018 04:43 bo 18.4 3,954
11/14/2018 04:43 base 18.4 9,293
11/14/2018 04:43 automobile 18.4 7
11/14/2018 04:43 subo 18.4 58
11/14/2018 04:43 ap 18.4 1,431
11/14/2018 04:43 NEWHUD 18.4 5,803
11/14/2018 04:43 adj 18.4 10,157
11/14/2018 04:43 submitting 18.4 13
11/14/2018 04:42 Mo 18.4 11,444
11/14/2018 04:42 act 18.4 1,443
11/14/2018 04:42 X 18.4 17,090
11/14/2018 04:42 other 18.4 1,094
11/14/2018 04:42 M 18.4 24,251
11/14/2018 04:42 subject state 18.4 33
11/14/2018 04:42 Lock (Most Recent 18.4 5,533
11/14/2018 04:42 subject indicator 18.4 6
11/14/2018 04:42 Un 18.4 6,079
11/14/2018 04:42 LOCKRATE 18.4 12,421
11/14/2018 04:42 Sell 18.4 4,823
11/14/2018 04:42 plat 18.4 24
11/14/2018 04:42 sub 18.4 547
11/14/2018 04:42 Request 18.4 8,313
11/14/2018 04:42 Com 18.4 4,348
11/14/2018 04:42 Re 18.4 20,414
11/14/2018 04:42 Base 18.4 9,293
11/14/2018 04:42 street 18.4 149
11/14/2018 04:42 REQU 18.4 8,636
11/14/2018 04:42 Mort 18.4 1,556
11/14/2018 04:42 2 18.4 20,540
11/14/2018 04:42 MI 18.4 1,199
11/14/2018 04:42 1 18.4 21,213
11/14/2018 04:42 str 18.4 603
11/14/2018 04:42 Lock 18.4 13,781
11/14/2018 04:42 BenNm 18.4 2
11/14/2018 04:42 180 18.4 42
11/14/2018 04:42 t 18.4 32,362
11/14/2018 04:42 Hud 1 18.4 3,271
11/14/2018 04:42 spec 18.4 128
11/14/2018 04:42 pro 18.4 2,029
11/14/2018 04:42 debt 18.4 70
11/14/2018 04:42 resci 18.4 3
11/14/2018 04:42 File contac 18.4 1,004
11/14/2018 04:42 step rate 18.4 1
11/14/2018 04:42 payee code 18.4 10
11/14/2018 04:42 category 18.4 70
11/14/2018 04:42 se 18.4 16,969
11/14/2018 04:42 payee code 18.4 10
11/14/2018 04:42 party type 18.4 7
11/14/2018 04:42 EDISCLOSED2015TRK.EDISCLOSUREBORROWE 18.4 1
11/14/2018 04:42 s 18.4 32,493
11/14/2018 04:42 party type 18.4 7
11/14/2018 04:42 step payment 18.4 2
11/14/2018 04:42 request 18.4 8,313
11/14/2018 04:42 parcel 18.4 1
11/14/2018 04:42 DISCLOS 18.4 2,770
11/14/2018 04:42 parcel 18.4 1
11/14/2018 04:42 mor 18.4 1,588
11/14/2018 04:42 Inspection 18.4 19
11/14/2018 04:42 Closing Disclosu 18.4 1,015
11/14/2018 04:42 mineral 18.4 2
11/14/2018 04:41 rate request lock 18.4 7,896
11/14/2018 04:41 step paym 18.4 2
11/14/2018 04:41 this 18.4 18
11/14/2018 04:41 mineral 18.4 2
11/14/2018 04:41 Closing 18.4 2,119
11/14/2018 04:41 lot 18.4 8
11/14/2018 04:41 rate 18.4 13,952
11/14/2018 04:41 life of loan 18.4 3
11/14/2018 04:41 ot 18.4 3,630
11/14/2018 04:41 newhud2.x2841 18.4 1
11/14/2018 04:41 Prope 18.4 621
11/14/2018 04:41 CE 18.4 12,465
11/14/2018 04:41 life of loan 18.4 3
11/14/2018 04:41 step 18.4 8
11/14/2018 04:41 initial fi 18.4 15
11/14/2018 04:41 Borr F 18.4 2,427
11/14/2018 04:41 borr 18.4 3,282
11/14/2018 04:41 or 18.4 8,800
11/14/2018 04:41 5 18.4 9,484
11/14/2018 04:41 uldd appraisal id 18.4 1
11/14/2018 04:41 std 18.4 45
11/14/2018 04:41 ms.st 18.4 5
11/14/2018 04:41 newhud2 18.4 3,978
11/14/2018 04:41 newhud.x1143 18.4 1
11/14/2018 04:41 model 18.4 6
11/14/2018 04:41 ne 18.4 9,604
11/14/2018 04:41 x98 18.4 77
11/14/2018 04:41 status 18.4 174
11/14/2018 04:41 co-bo 18.4 582
11/14/2018 04:41 608 18.4 24
11/14/2018 04:41 x223 18.4 22
11/14/2018 04:41 stable monthly income 18.4 4
11/14/2018 04:41 n 18.4 31,289
11/14/2018 04:41 written 18.4 19
11/14/2018 04:41 wish 18.4 15
11/14/2018 04:41 los 18.4 4,008
11/14/2018 04:41 lockr 18.4 12,421
11/14/2018 04:41 verified 18.4 12
11/14/2018 04:41 lock 3 18.4 7,397
11/14/2018 04:41 st 18.4 15,360
11/14/2018 04:41 471 18.4 35
11/14/2018 04:41 verif 18.4 60
11/14/2018 04:41 lock (p 18.4 6,770
11/14/2018 04:41 vend.x735 18.4 1
11/14/2018 04:41 ssn 18.4 173
11/14/2018 04:41 lock ( 18.4 12,310
11/14/2018 04:41 vend.x43 18.4 11
11/14/2018 04:41 lock 18.4 13,781
11/14/2018 04:41 ven 18.4 1,105
11/14/2018 04:41 valuation 18.4 9
11/14/2018 04:41 HMDA.X12 18.4 1
11/14/2018 04:41 ssa-89 18.4 12
11/14/2018 04:41 uwC.AC 18.4 2
11/14/2018 04:40 lo 18.4 19,622
11/14/2018 04:40 uldd.x148 18.4 1
11/14/2018 04:40 trans detail total late payment 18.4 1
11/14/2018 04:40 le 18.4 5,984
11/14/2018 04:40 trans detail preapproval 18.4 1
11/14/2018 04:40 ssa 18.4 49
11/14/2018 04:40 trans de 18.4 527
11/14/2018 04:40 SYS.X268 18.4 1
11/14/2018 04:40 tpoi 18.4 12
11/14/2018 04:40 specific 18.4 65
11/14/2018 04:40 the 18.4 1,314
11/14/2018 04:40 solar 18.4 4
11/14/2018 04:40 terms.intr 18.4 1
11/14/2018 04:40 templat 18.4 24
11/14/2018 04:40 social 18.4 16
11/14/2018 04:40 telephone 18.4 32
11/14/2018 04:40 subject property type fan 18.4 12
11/14/2018 04:40 document.company 18.4 1
11/14/2018 04:40 subject pr 18.4 340
11/14/2018 04:40 signing 18.4 27
11/14/2018 04:40 statement 18.4 16
11/14/2018 04:40 763 18.4 44
11/14/2018 04:40 started 18.4 2
11/14/2018 04:40 x134 18.4 37
11/14/2018 04:40 equifax 18.4 177
11/14/2018 04:40 shee 18.4 102
11/14/2018 04:40 in 18.4 16,708
11/14/2018 04:40 settlementagent 18.4 11
11/14/2018 04:40 serv 18.4 953
11/14/2018 04:40 16 18.4 1,584
11/14/2018 04:40 i 18.4 32,630
11/14/2018 04:40 sellers 18.4 28
11/14/2018 04:40 section of housi 18.4 1
11/14/2018 04:40 section of ho 18.4 1
11/14/2018 04:40 hu 18.4 6,446
11/14/2018 04:40 side 18.4 5,248
11/14/2018 04:39 second term 18.4 1
11/14/2018 04:39 sec 35 hpml average prime offer rat 18.4 1
11/14/2018 04:39 fi 18.4 5,152
11/14/2018 04:39 fee 18.4 8,153
11/14/2018 04:39 shop 18.4 278
11/14/2018 04:39 det 18.4 4,347
11/14/2018 04:39 right to ca 18.4 21
11/14/2018 04:39 c 18.4 29,929
11/14/2018 04:39 shipping 18.4 33
11/14/2018 04:39 DEB 18.4 60
11/14/2018 04:39 rig 18.4 247
11/14/2018 04:39 ar 18.4 6,425
11/14/2018 04:39 1109 18.4 69
11/14/2018 04:39 Rate lock 18.4 13,604
11/14/2018 04:39 ret 18.4 125
11/14/2018 04:39 sheet 18.4 102
11/14/2018 04:39 IL 18.4 6,224
11/14/2018 04:39 respa.x6 18.4 1
11/14/2018 04:39 repur 18.4 7
11/14/2018 04:39 she 18.4 119
11/14/2018 04:39 reporting 18.4 4
11/14/2018 04:39 HU 18.4 6,446
11/14/2018 04:39 CD4.X9 18.4 1
11/14/2018 04:39 repair 18.4 9
11/14/2018 04:39 sharing 18.4 11
11/14/2018 04:39 E 18.4 34,199
11/14/2018 04:39 D 18.4 30,763
11/14/2018 04:39 rent income 18.4 14
11/14/2018 04:39 reo 18.4 5
11/14/2018 04:39 rent 18.4 384
11/14/2018 04:39 Cl 18.4 4,160
11/14/2018 04:39 sex 18.4 3
11/14/2018 04:39 relationship 18.4 44
11/14/2018 04:39 relati 18.4 59
11/14/2018 04:39 AR 18.4 6,425
11/14/2018 04:39 refun 18.4 66
11/14/2018 04:39 2106 18.4 35
11/14/2018 04:39 8 18.4 11,315
11/14/2018 04:39 refinance 18.4 72
11/14/2018 04:39 line descr 18.4 275
11/14/2018 04:39 refi type 18.4 8
11/14/2018 04:38 setup 18.4 19
11/14/2018 04:38 0109 18.4 2
11/14/2018 04:38 7 18.4 9,846
11/14/2018 04:38 recommen 18.4 9
11/14/2018 04:38 settlementagent 18.4 11
11/14/2018 04:38 reasons 18.4 15
11/14/2018 04:38 122 18.4 70
11/14/2018 04:38 rate se 18.4 10,169
11/14/2018 04:38 set 18.4 323
11/14/2018 04:38 purpo 18.4 55
11/14/2018 04:38 product code 18.4 12
11/14/2018 04:38 prior 18.4 35
11/14/2018 04:38 1041 18.4 15
11/14/2018 04:38 servicing 18.4 350
11/14/2018 04:38 prepaymen 18.4 50
11/14/2018 04:38 (Previous 18.4 6,974
11/14/2018 04:38 points and fees 18.4 137
11/14/2018 04:38 servicer 18.4 103
11/14/2018 04:38 35 18.4 1,213
11/14/2018 04:38 u 18.4 28,359
11/14/2018 04:38 Loan Pu 18.4 52
11/14/2018 04:38 servi 18.4 886
11/14/2018 04:38 LOG.MS.LASTCO 18.4 1
11/14/2018 04:38 307 18.4 104
11/14/2018 04:38 LO 18.4 19,622
11/14/2018 04:38 ty 18.4 2,483
11/14/2018 04:38 LE2.X96 18.4 1
11/14/2018 04:38 sequence 18.4 12
11/14/2018 04:38 to 18.4 6,016
11/14/2018 04:38 th 18.4 2,548
11/14/2018 04:38 LE2.X5 18.4 1
11/14/2018 04:38 sentdate 18.4 6
11/14/2018 04:38 35 18.4 1,213
11/14/2018 04:38 LE1.X24 18.4 1
11/14/2018 04:38 e 18.4 31,126
11/14/2018 04:38 sur 18.4 2,791
11/14/2018 04:38 sent date 18.4 40
11/14/2018 04:38 LE sen 18.4 36
11/14/2018 04:38 reque 18.4 8,324
11/14/2018 04:37 LE Loan Snapshot - Loan Amount 18.4 1
11/14/2018 04:37 L81 18.4 2
11/14/2018 04:37 rate lock 18.4 13,604
11/14/2018 04:37 L245 18.4 2
11/14/2018 04:37 605 18.4 13
11/14/2018 04:37 Info not 18.4 24
11/14/2018 04:37 rat 18.4 14,117
11/14/2018 04:37 Interviewer's License Number 18.4 2
11/14/2018 04:37 ID 18.4 10,113
11/14/2018 04:37 prev 18.4 7,122
11/14/2018 04:37 sent 18.4 177
11/14/2018 04:37 va rl 18.4 1
11/14/2018 04:37 HMDA.X109 18.4 1
11/14/2018 04:37 updated 18.4 9
11/14/2018 04:37 pa 18.4 8,126
11/14/2018 04:37 updated 18.4 9
11/14/2018 04:37 File Contacts Loan Proce 18.4 6
11/14/2018 04:37 1305 18.4 58
11/14/2018 04:37 beacon 18.4 172
11/14/2018 04:37 send 18.4 21
11/14/2018 04:37 Fil 18.4 1,148
11/14/2018 04:37 app. 18.4 1
11/14/2018 04:37 newhud2.x2478 18.4 1
11/14/2018 04:37 app. 18.4 1
11/14/2018 04:37 FM0041 18.4 1
11/14/2018 04:37 p 18.4 25,017
11/14/2018 04:37 1264 18.4 3
11/14/2018 04:37 FL0015 18.4 1
11/14/2018 04:37 sen 18.4 201
11/14/2018 04:37 1010 18.4 46
11/14/2018 04:37 FHA Sponsor 18.4 3
11/14/2018 04:37 1010 18.4 46
11/14/2018 04:37 o 18.4 32,444
11/14/2018 04:37 wr 18.4 260
11/14/2018 04:37 FE0217 18.4 1
11/14/2018 04:37 und 18.4 875
11/14/2018 04:37 margin 18.4 2,056
11/14/2018 04:37 FE0115 18.4 12
11/14/2018 04:37 und 18.4 875
11/14/2018 04:37 selling 18.4 1
11/14/2018 04:37 688 18.4 34
11/14/2018 04:37 uldd.x27 18.4 1
11/14/2018 04:37 lock (pre 18.4 6,770
11/14/2018 04:37 Document.DateOrdere 18.4 1
11/14/2018 04:37 type 18.4 931
11/14/2018 04:37 Document typ 18.4 26
11/14/2018 04:37 type 18.4 931
11/14/2018 04:37 seller nam 18.4 17
11/14/2018 04:37 total loan 18.4 67
11/14/2018 04:37 Document Signing 18.4 1
11/14/2018 04:37 lock (Most rec 18.4 5,533
11/14/2018 04:37 total loan 18.4 67
11/14/2018 04:37 Disclosure.X564 18.4 1
11/14/2018 04:37 survey date 18.4 3
11/14/2018 04:37 Disclosure Information 18.4 1
11/14/2018 04:37 aka 18.4 2
11/14/2018 04:37 loc 18.4 13,876
11/14/2018 04:37 request 18.4 7,208
11/14/2018 04:37 seller 18.4 1,953
11/14/2018 04:37 refund 18.4 61
11/14/2018 04:37 113 18.4 152
11/14/2018 04:37 Date I 18.4 1,281
11/14/2018 04:37 refund 18.4 61
11/14/2018 04:37 rescission 18.4 2
11/14/2018 04:37 qual 18.4 320
11/14/2018 04:37 DISCLOSURE.X631 18.4 1
11/14/2018 04:37 processor 18.4 25
11/14/2018 04:37 interim 18.4 263
11/14/2018 04:37 DISCLOSURE.X481 18.4 1
11/14/2018 04:36 interim 18.4 263
11/14/2018 04:36 li 18.4 9,654
11/14/2018 04:36 DISCLOSURE.X48 18.4 11
11/14/2018 04:36 in 18.4 16,461
11/14/2018 04:36 selected 18.4 12
11/14/2018 04:36 hmda.x24 18.4 1
11/14/2018 04:36 id 18.4 10,113
11/14/2018 04:36 hmda. 18.4 94
11/14/2018 04:36 DISCLOSURE.X364 18.4 1
11/14/2018 04:36 hmda. 18.4 94
11/14/2018 04:36 funded 18.4 8
11/14/2018 04:36 ice 18.4 6,657
11/14/2018 04:36 funded 18.4 8
11/14/2018 04:36 estimated 18.4 41
11/14/2018 04:36 section 18.4 783
11/14/2018 04:36 g 18.4 10,868
11/14/2018 04:36 credit decision 18.4 14
11/14/2018 04:36 DD001 18.4 10
11/14/2018 04:36 coop 18.4 12
11/14/2018 04:36 des 18.4 5,625
11/14/2018 04:36 conv 18.4 9
11/14/2018 04:36 Credit Rpt Ref 18.4 1
11/14/2018 04:36 disclosure.x95 18.4 11
11/14/2018 04:36 closer 18.4 6
11/14/2018 04:36 Closing Discl 18.4 1,016
11/14/2018 04:36 capiaP.X9 18.4 1
11/14/2018 04:36 de 18.4 17,909
11/14/2018 04:36 buy 18.4 2,926
11/14/2018 04:36 Document 18.4 488
11/14/2018 04:36 Census 18.4 2
11/14/2018 04:36 da 18.4 2,320
11/14/2018 04:36 branch id 18.4 65
11/14/2018 04:36 rate lock buy requested by 18.4 12
11/14/2018 04:36 branch id 18.4 65
11/14/2018 04:36 bor 18.4 3,682
11/14/2018 04:36 COND.OPEN.P 18.4 2
11/14/2018 04:36 bor 18.4 3,682
11/14/2018 04:36 attenti 18.4 12
11/14/2018 04:36 com 18.4 4,348
11/14/2018 04:36 CONCESSION 18.4 113
11/14/2018 04:36 approval date 18.4 32
11/14/2018 04:36 second 18.4 38
11/14/2018 04:36 co 18.4 10,428
11/14/2018 04:36 amount 18.4 4,074
11/14/2018 04:36 CD3.X12 18.4 40
11/14/2018 04:36 2499 18.4 13
11/14/2018 04:36 amount 18.4 4,074
11/14/2018 04:36 610 18.4 14
11/14/2018 04:36 CD1.XD9 18.4 1
11/14/2018 04:36 amortization type 18.4 10
11/14/2018 04:36 hmda.x93 18.4 1
11/14/2018 04:36 amortization type 18.4 10
11/14/2018 04:36 CASASRN.X107 18.4 1
11/14/2018 04:36 bor 18.4 3,801
11/14/2018 04:36 amortization 18.4 32
11/14/2018 04:36 sec 32 18.4 258
11/14/2018 04:36 additional 18.4 389
11/14/2018 04:36 CASASRN.X1 18.4 55
11/14/2018 04:36 VF 18.4 2
11/14/2018 04:36 Business 18.4 177
11/14/2018 04:36 VF 18.4 2
11/14/2018 04:36 score 18.4 561
11/14/2018 04:36 ULDD.X1 18.4 100
11/14/2018 04:36 MIP REFUND 18.4 1
11/14/2018 04:35 Borrower N 18.4 1,826
11/14/2018 04:35 ULDD.X1 18.4 100
11/14/2018 04:35 amo 18.4 4,290
11/14/2018 04:35 Trans Details 18.4 430
11/14/2018 04:35 Borrower Indicator 18.4 13
11/14/2018 04:35 Trans Details 18.4 430
11/14/2018 04:35 sched 18.4 235
11/14/2018 04:35 sys.x2 18.4 104
11/14/2018 04:35 Real estate owned 18.4 1
11/14/2018 04:35 Borr Race Info not prov 18.4 2
11/14/2018 04:35 Real estate owned 18.4 1
11/14/2018 04:35 Milestone Date 18.4 18
11/14/2018 04:35 Borr Employe 18.4 141
11/14/2018 04:35 Milestone Date 18.4 18
11/14/2018 04:35 Mavent 18.4 18
11/14/2018 04:35 scenario 18.4 75
11/14/2018 04:35 BE0004 18.4 2
11/14/2018 04:35 Mavent 18.4 18
11/14/2018 04:35 Assistant 18.4 2
11/14/2018 04:35 LoanTeammember.name 18.4 1
11/14/2018 04:35 sate 18.4 60
11/14/2018 04:35 Lender ID 18.4 266
11/14/2018 04:35 relations 18.4 44
11/14/2018 04:35 age 18.4 2,182
11/14/2018 04:35 Lender ID 18.4 266
11/14/2018 04:35 compar 18.4 2,584
11/14/2018 04:35 As completed purchase price 18.4 1
11/14/2018 04:35 Land 18.4 68
11/14/2018 04:35 adjust 18.4 9,985
11/14/2018 04:35 For financing 18.4 1
49 of 34,519 Fields in Encompass 18.4 contain 'organiz'
Type Field ID Format Opts Description First Chng
Standard 1903 STRING Closing Docs Beneficiary Organization Type
Standard 4249 STRING FHA Basic Info - Water Purification Maintenance Organization 18.1
Standard CLOSING.ALLNGTONTPAYTOORGTYP STRING 30 Ellie Mae Closing Document Override - Allonge to Note Pay to Organization Type 8.1
Standard CLOSING.BENORGTYP STRING 30 Ellie Mae Closing Document Override - Beneficiary Organization Type 8.1
Standard CLOSING.INVASGNJRSDCTN STRING Ellie Mae Closing Document Override - Investor Assignment Organized Under the Laws Of Jurisdiction Name 8.1
Standard CLOSING.INVASGNORGTYP STRING 30 Ellie Mae Closing Document Override - Investor Assignment Organization Type 8.1
Standard CLOSING.INVLOSSPAYEEJRSDCTN STRING Ellie Mae Closing Document Override - Investor Loss Payee Organized Under the Laws Of Jurisdiction Name 8.1
Standard CLOSING.INVLOSSPAYEEORGTYP STRING 30 Ellie Mae Closing Document Override - Investor Loss Payee Organization Type 8.1
Standard CLOSING.INVORGTYP STRING 30 Ellie Mae Closing Document Override - Investor Organization Type 8.1
Standard CLOSING.INVSVCRORGTYP STRING 30 Ellie Mae Closing Document Override - Investor Servicer Organization Type 8.1
Standard CLOSING.LNDBRCHORGTYP STRING 30 Ellie Mae Closing Document Override - Lender Branch Organization Type 8.1
Standard CLOSING.LNDLOSSPAYEEORGTYP STRING 30 Ellie Mae Closing Document Override - Lender Loss Payee Organization Type 8.1
Standard CLOSING.LNDORGTYP STRING 30 Ellie Mae Closing Document Override - Lender Organization Type 8.1
Standard CLOSING.LNDSVCRJRSDCTN STRING Ellie Mae Closing Document Override - Lender Servicer Organized Under the Laws Of Jurisdiction Name 8.1
Standard CLOSING.LNDSVCRORGTYP STRING 30 Ellie Mae Closing Document Override - Lender Servicer Organization Type 8.1
Standard CLOSING.MERSORGTYP STRING 30 Ellie Mae Closing Document Override - MERS Organization Type 8.1
Standard CLOSING.NTENDRSMTPAYTOORGTYP STRING 30 Ellie Mae Closing Document Override - Note Endorsement Pay To Organization Type 8.1
Standard CLOSING.NTPAYTOORGTYP STRING 30 Ellie Mae Closing Document Override - Note Pay To Organization Type 8.1
Standard CLOSING.TRST1ORGTYP STRING 30 Ellie Mae Closing Document Override - Trustee 1 Organization Type 8.1
Standard CLOSING.TRST2ORGTYP STRING 30 Ellie Mae Closing Document Override - Trustee 2 Organization Type 8.1
Standard CT.DOT.INITIALREQUEST.ORGANIZATION STRING DOT Mort Org 16.3
Standard CT.DOT.RETURNREQUEST.ORGANIZATION STRING DOT Mort Ret Req Org 16.3
Standard CT.DOT.SHIPPINGSTATUS.ORGANIZATION STRING DOT Mort Ship Org 16.3
Standard CT.FTP.INITIALREQUEST.ORGANIZATION STRING FTP Org 16.3
Standard CT.FTP.RETURNREQUEST.ORGANIZATION STRING FTP Ret Req Org 16.3
Standard CT.FTP.SHIPPINGSTATUS.ORGANIZATION STRING FTP Ship Org 16.3
Virtual DOCS.CLOSING.ALLNGTONTPAYTOORGTYP STRING Closing Docs - Allonge to Note Pay to Organization Type 8.1
Virtual DOCS.CLOSING.BENORGTYP STRING Closing Docs - Beneficiary Organization Type 8.1
Virtual DOCS.CLOSING.INVASGNJRSDCTN STRING Closing Docs - Investor Assignment Organized Under the Laws Of Jurisdiction Name 8.1
Virtual DOCS.CLOSING.INVASGNORGTYP STRING Closing Docs - Investor Assignment Organization Type 8.1
Virtual DOCS.CLOSING.INVLOSSPAYEEJRSDCTN STRING Closing Docs - Investor Loss Payee Organized Under the Laws Of Jurisdiction Name 8.1
Virtual DOCS.CLOSING.INVLOSSPAYEEORGTYP STRING Closing Docs - Investor Loss Payee Organization Type 8.1
Virtual DOCS.CLOSING.INVORGTYP STRING Closing Docs - Investor Organization Type 8.1
Virtual DOCS.CLOSING.INVSVCRORGTYP STRING Closing Docs - Investor Servicer Organization Type 8.1
Virtual DOCS.CLOSING.LNDBRCHORGTYP STRING Closing Docs - Lender Branch Organization Type 8.1
Virtual DOCS.CLOSING.LNDLOSSPAYEEORGTYP STRING Closing Docs - Lender Loss Payee Organization Type 8.1
Virtual DOCS.CLOSING.LNDORGTYP STRING Closing Docs - Lender Organization Type 8.1
Virtual DOCS.CLOSING.LNDSVCRJRSDCTN STRING Closing Docs - Lender Servicer Organized Under the Laws Of Jurisdiction Name 8.1
Virtual DOCS.CLOSING.LNDSVCRORGTYP STRING Closing Docs - Lender Servicer Organization Type 8.1
Virtual DOCS.CLOSING.MERSORGTYP STRING Closing Docs - MERS Organization Type 8.1
Virtual DOCS.CLOSING.NTENDRSMTPAYTOORGTYP STRING Closing Docs - Note Endorsement Pay To Organization Type 8.1
Virtual DOCS.CLOSING.NTPAYTOORGTYP STRING Closing Docs - Note Pay To Organization Type 8.1
Virtual DOCS.CLOSING.TRST1ORGTYP STRING Closing Docs - Trustee 1 Organization Type 8.1
Virtual DOCS.CLOSING.TRST2ORGTYP STRING Closing Docs - Trustee 2 Organization Type 8.1
Standard LENDER.ORGSTATE STRING File Contacts Lender Organization State/Jurisdiction 8.1
Standard LENDER.ORGTYPE STRING File Contacts Lender Organization Type 8.1
Standard ORGID STRING Company - Users Organization Code
Standard TPO.X16 STRING TPO Company Organization ID 14.2
Standard TPO.X40 STRING TPO Branch Organization ID 14.2